Regional Weather Roundup
Issued by NWS Wakefield, VA

Home | Current Version | Previous Version | Text Only | Print | Product List | Glossary Off
Versions: 1 2 3 4 5 6 7 8 9 10 11 12 13 14 15 16 17 18 19 20 21 22 23 24 25 26 27

000
ASUS41 KAKQ 281315
RWRAKQ

REGIONAL WEATHER ROUNDUP
NATIONAL WEATHER SERVICE WAKEFIELD VA
900 AM EDT SAT MAY 28 2016

Note: "fair" indicates few or no clouds below 12,000 feet with no
significant weather and/or obstructions to visibility. * = Denotes
station may not report precipitation (e.g., rain,snow,etc.),
thunder or fog.

VAZ042-051-052>054-056-281400-
NORTHERN VIRGINIA

CITY           SKY/WX    TMP DP  RH WIND       PRES   REMARKS
WASH NATIONAL  FAIR      74  64  71 S9        30.16R
DULLES         FAIR      74  64  71 S6        30.16R
FORT BELVOIR   FAIR      75  63  65 S5        30.16R
QUANTICO       FAIR      73  65  75 S9        30.17R
FREDERICKSBRG* FAIR      74  64  69 SW6       30.16R
STAFFORD*      FAIR      74  62  64 S3        30.20R
WARRENTON      FAIR      76  61  58 S3        30.16R
CULPEPER*      FAIR      76  67  73 SW5       30.17R
MANASSAS*      NOT AVBL
LEESBURG*      FAIR      77  70  78 S8        30.18R
WINCHESTER     FAIR      75  66  73 S3        30.17R
FRONT ROYAL*   FAIR      72  68  88 CALM      30.16R
LURAY*         FAIR      73  70  88 CALM      30.18R
$$

VAZ048-049-060>072-079>083-281400-
CENTRAL AND SOUTH CENTRAL VIRGINIA

CITY           SKY/WX    TMP DP  RH WIND       PRES   REMARKS
RICHMOND       FAIR      73  61  65 SW8       30.19R
CHESTERFIELD*  FAIR      73  55  53 SW8       30.21R
PETERSBURG*    FAIR      74  63  68 SW3       30.21R
HANOVER        FAIR      74  60  61 SW8       30.20R
TAPPAHANNOCK*  FAIR      76  61  60 S7        30.19R
QUINTON*       FAIR      72  63  73 SW6       30.19R
CHARLOTTSVILLE FAIR      74  65  73 S3        30.16R
GORDONSVILLE*  FAIR      74  65  75 SW7       30.16R
ORANGE*        FAIR      75  64  69 SW3       30.18R
LOUISA*        FAIR      77  66  69 CALM      30.16R
BUMPASS*       FAIR      73  64  72 SW5       30.17R
FARMVILLE*     FAIR      74  63  69 S6        30.17R
CREWE*         FAIR      72  64  76 CALM      30.19S
FORT PICKETT*  NOT AVBL
CHASE CITY*    FAIR      71  63  74 CALM      30.20R
CLARKSVILLE*   FAIR      70  64  83 S3        30.19S
SOUTH HILL*    FAIR      70  63  78 SW5       30.26R
LAWRENCEVILLE* FAIR      71  64  79 SW6       30.20R
EMPORIA*       FAIR      70  63  78 S3        30.22R
$$

VAZ088>098-281400-
SOUTHEAST VIRGINIA

CITY           SKY/WX    TMP DP  RH WIND       PRES   REMARKS
NORFOLK        FAIR      75  64  68 SW7       30.20R
VIRGINIA BEACH FAIR      80  64  58 S7        30.19S
NORFOLK NAVAL  FAIR      76  65  68 SW5       30.21R
WEST POINT*    FAIR      73  61  65 S7        30.21R
SALUDA*        FAIR      74  65  73 SW5       30.19R
NEWPORT NEWS   FAIR      73  63  70 SW7       30.20R
LANGLEY AFB    FAIR      74  64  70 S8        30.20R
FORT EUSTIS    FAIR      73  62  69 SW6       30.18R
WILLIAMSBURG*  FAIR      73  64  73 S5        30.21R
HR EXEC AP*    FAIR      73  66  78 SW3       30.22R
FRANKLIN*      FAIR      73  64  73 CALM      30.21R
US460-WAKEFLD  FAIR      73  61  65 S6        30.20R
$$

VAZ020-022-025-037-045-281400-
WEST CENTRAL AND SOUTHWEST VIRGINIA

CITY           SKY/WX    TMP DP  RH WIND       PRES   REMARKS
STAUNTON*      FAIR      70  66  89 SE3       30.21R
WAYNESBORO*    FAIR      72  65  78 CALM      30.20R
HOT SPRINGS VA FAIR      67  61  80 W8        30.28S
LYNCHBURG      FAIR      72  62  71 S5        30.19F
DANVILLE       FAIR      70  61  73 SW5       30.19S
SOUTH BOSTON*  FAIR      72  63  75 CALM      30.19S
MARTINSVILLE   FAIR      69  61  75 CALM      30.22R
ROANOKE        FAIR      72  64  76 CALM      30.21R
BLACKSBURG     FAIR      70  63  79 CALM      30.26R
DUBLIN*        CLOUDY    66  66 100 CALM      30.25R FOG
MARION*        PTSUNNY   65  64  96 CALM      30.27R FOG
HILLSVILLE*    FAIR      67  62  85 CALM      30.24R
RICHLANDS*     FAIR      68  67  97 CALM      30.24R
WISE*          FAIR      70  55  60 S5        30.23R
ABINGDON*      FAIR      70  64  80 CALM      30.22R
$$

MDZ021>025-VAZ099-100-281400-
SOUTHERN MARYLAND AND THE DELMARVA PENINSULA

CITY           SKY/WX    TMP DP  RH WIND       PRES   REMARKS
PATUXENT RIVER MOSUNNY   74  61  63 SW6       30.17S
BAY BRIDGE APT SUNNY     75  61  60 SW8       30.16R
LEONARDTOWN    SUNNY     73  61  64 SW6       30.19R
DOVER          SUNNY     76  66  71 SW6       30.16R
GEORGETOWN     MOSUNNY   75  63  66 SW10      30.19R
EASTON         SUNNY     75  66  73 SW8       30.20R
CAMBRIDGE      SUNNY     73  63  68 S6        30.17S
SALISBURY      SUNNY     75  64  68 SW9       30.19R
OCEAN CITY     SUNNY     72  65  78 S8        30.20R
WALLOPS ISLAND FAIR      75  65  70 S7        30.21R
ACCOMACK*      FAIR      75  59  57 CALM      30.20R
$$

NCZ012>017-030>032-281400-
NORTH CENTRAL AND EASTERN NORTH CAROLINA

CITY           SKY/WX    TMP DP  RH WIND       PRES   REMARKS
ROANOKE RAPIDS FAIR      70  63  78 CALM      30.20R
RALEIGH        MOSUNNY   73  64  73 CALM      30.19S
ELIZABETH CITY SUNNY     75  66  73 E6        30.20R
AHOSKIE*       SUNNY     70  64  81 CALM      30.20R
EDENTON*       SUNNY    N/A N/A N/A E3        30.20R
CURRITUCK*     SUNNY     75  68  77 NE3       30.21R
KILL DEVIL HLS SUNNY     74  66  74 E3        30.19S
MANTEO         NOT AVBL
CAPE HATTERAS  SUNNY     79  69  71 E9        30.18R
TARBORO*       FAIR      72  65  79 CALM      30.21R
GOLDSBORO      MOSUNNY  N/A N/A N/A MISG        N/A
WASHINGTON     SUNNY     73  66  81 E3        30.19R
GREENVILLE     SUNNY     73  68  83 E3        30.20R
NEW BERN       SUNNY     76  70  82 NE7       30.18S
WILMINGTON     SUNNY     77  69  76 E9        30.15R
$$

VAZ048-281400-
ELSEWHERE

CITY           SKY/WX    TMP DP  RH WIND       PRES   REMARKS
HARRISBURG PA  PTSUNNY   76  68  76 CALM      30.13S HAZE
BALTIMORE      MOSUNNY   76  63  64 W6        30.15R
ANNAPOLIS      SUNNY     74  63  68 S7        30.15R
ANDREWS AFB    FAIR      76  62  63 SW9       30.16R
PHILADELPHIA   PTSUNNY   75  61  61 SW10      30.16R
HENDERSON NC   SUNNY     69  61  76 SW6       30.20S
GREENSBORO     MOSUNNY   72  59  63 W3        30.19R
ROCKY MOUNT    SUNNY     73  65  75 CALM      30.20R
$$

VAZ100-281400-
MARINE

STATION/POSITION TIME  TEMP    WIND        PRES    WAVE   SWELL
                       AIR SEA DIR/SP/G            HT/PER HT/PER
                 (UTC) (F)     (DEG/KT/KT) (MB)    (FT/S) (FT/S)
BRANDYWINE LGT   1200   66     190/  7/  8 1021.5R
CAPE MAY NJ      1200   69 67  180/  6/  8 1021.3R
LEWES DE         1200   72 60  240/  8/ 12 1021.3S
15NM E FENWICK I 1250   64 61              1022.7R   2/ 7
OCEAN-CITY-INLET 1200   61 61  210/  7/  8 1022.5R
WACHAPREAGUE VA  1200   74 74  220/  6/  8 1021.9R
THOMAS POINT MD  1300   68 66  180/ 12/ 14 1022.4R
GOOSES REEF MD   1300   69 67  170/ 10/ 12 1022.4R   1/ 8
COVE POINT MD    1200   68     180/  9/ 10 1022.1R
SOLOMONS ISLAND  1200   71 66  210/  6/  7   N/A
BISHOPS HEAD MD  1200   71 71  210/  9/ 11 1022.0R
PINEY POINT MD   1200          220/  6/  7   N/A
POTOMAC MD       1300   70 68  230/  4/  4 1021.0R   1
CAMBRIDGE MD     1200   72 66  190/  5/  8 1020.6R
LEWISETTA VA     1200   72 63  240/  9/ 11 1021.2R
RAPPAHANNOCK LGT 1200          190/  8/  8 1022.8R
STINGRAY PT      1300   71 69  220/  4/  6 1023.0R   0
YORK RVR RNG VA  1200   70     210/  5/  5 1021.8R
YORKTOWN VA      1200   71 69  210/  4/  5 1021.9R
JAMESTOWN VA     1300   72 73  200/  4/ 10   N/A     0
DOMINION TERM VA 1200   68     220/  4/  4 1022.4R
KIPTOPEKE VA     1200      68  180/  5/  6   N/A
CHES BAY BRIDGE  1200   69 69  180/  4/  5 1022.3R
CAPE HENRY VA    1200   71     190/  5/  7   N/A
CHESAPEAKE LGHT  1200   68     180/  8/  8 1023.1R
WILLOUBY STN VA  1200   71     210/  8/  9 1023.3R
CAPE HENRY BUOY  1212      66                N/A     2/ 7
1ST LANDING BUOY 1300   70 69   60/  2/  4 1022.7R   1/ 4
CAPE CHARLES BUO 1226      66                N/A     2/ 8   2/ 8
OFFSHORE WE BUOY 1221      67                N/A     3/ 8   2/ 8
64NM E OF VA BCH 1250   66 62   70/  4/  4 1022.8R   3/ 8   2/ 8
DUCK PIER NC     1200   66 60   80/  6/  6 1021.8R
44100 DUCK FRF   1224      66                N/A     3/ 8
44056 DUCK FRF   1211      63                N/A     2/ 7
OREGON INLET NC  1200   71 71   60/  5/  7 1022.0R
HATTERAS NC      1200   76 74  110/  5/  8 1021.2R
DIAMOND SHLS NC  1250   77 78  100/ 12/ 14 1021.6R   4/ 7   3/ 7
CAPE LOOKOUC1F1C2F2C3F3C4F4C5F5C6F6C7F7C8M1C9!



USA.gov is the U.S. government's official web portal to all federal, state and local government web resources and services.